LX1BS-13 Weather Reports


time (UTC)temp
F
wind
direction
speed
knots
gust
knots
rain 1hr
in
rain 24hr
in
rain mn
in
humidity
%
barometer
mb
20260506160105 53 275 2.6 7.0 0.00 0.33 0.03 81 1007.6
20260506154602 53 319 0.9 5.2 0.00 0.35 0.03 82 1007.5
20260506153112 53 300 0.9 6.1 0.00 0.35 0.03 82 1007.4
20260506151600 53 222 1.7 7.0 0.00 0.35 0.03 82 1007.3
20260506144559 52 323 1.7 7.8 0.00 0.37 0.03 87 1006.9
20260506143059 52 288 0.9 5.2 0.00 0.37 0.03 88 1007.0
20260506141559 52 0 0.0 7.8 0.00 0.37 0.03 91 1007.1
20260506134559 51 325 4.3 9.6 0.00 0.40 0.03 88 1007.1
20260506133056 52 279 1.7 7.0 0.00 0.40 0.03 89 1007.2
20260506131559 52 310 1.7 7.8 0.00 0.40 0.03 88 1007.0
20260506130058 52 306 3.5 8.7 0.00 0.40 0.03 87 1006.9
20260506124601 53 233 2.6 9.6 0.00 0.41 0.03 88 1006.8
20260506123057 53 344 1.7 5.2 0.00 0.41 0.03 87 1006.7
20260506121558 52 12 0.9 5.2 0.00 0.41 0.03 89 1006.5
20260506120058 52 352 2.6 6.1 0.00 0.41 0.03 87 1006.4
20260506114607 53 306 0.9 3.5 0.00 0.41 0.03 87 1006.4
20260506113058 53 343 0.9 4.3 0.00 0.41 0.03 88 1006.2
20260506111558 52 0 0.0 7.0 0.00 0.41 0.03 89 1006.2
20260506110058 52 344 0.9 6.1 0.00 0.41 0.03 90 1006.1
20260506104606 52 224 0.9 8.7 0.00 0.41 0.03 90 1006.0
20260506103059 53 0 0.0 4.3 0.00 0.41 0.03 92 1005.8
20260506101559 52 238 2.6 6.1 0.00 0.41 0.03 91 1005.7
20260506100056 51 241 2.6 7.0 0.00 0.41 0.03 92 1005.6
20260506094559 52 326 0.0 4.3 0.00 0.41 0.03 93 1005.6
20260506093057 51 0 1.7 4.3 0.00 0.41 0.03 93 1005.4
20260506091602 51 262 1.7 7.0 0.00 0.41 0.03 93 1005.4
20260506084605 51 294 1.7 6.1 0.00 0.41 0.03 93 1005.1
20260506083058 51 0 2.6 5.2 0.00 0.41 0.03 94 1005.0
20260506081559 52 0 0.0 1.7 0.00 0.41 0.03 95 1004.9
20260506080106 52 319 0.0 2.6 0.00 0.41 0.03 95 1004.9
20260506073058 51 0 0.0 0.9 0.01 0.41 0.03 95 1005.0
20260506071604 51 0 1.7 4.3 0.00 0.40 0.03 94 1004.9
20260506061556 51 323 0.9 2.6 0.01 0.40 0.02 95 1004.4
20260506050106 51 0 0.0 0.0 0.00 0.38 0.00 96 1004.0
20260506044558 51 0 0.0 0.0 0.00 0.38 0.00 96 1004.0
20260506043100 51 0 0.0 0.0 0.00 0.38 0.00 96 1004.2
20260506041602 51 0 0.0 0.0 0.00 0.38 0.00 96 1004.1
20260506040058 51 0 0.0 0.9 0.00 0.38 0.00 95 1004.3
20260506034615 51 0 0.0 0.0 0.00 0.38 0.00 95 1004.5
20260506033058 51 0 0.0 0.0 0.00 0.38 0.00 95 1004.6
20260506031607 51 0 0.0 1.7 0.00 0.38 0.00 95 1004.5
20260506030100 51 93 0.0 1.7 0.00 0.38 0.00 95 1004.6
20260506024616 51 0 0.0 1.7 0.00 0.38 0.00 95 1004.7
20260506023056 51 0 0.0 0.9 0.00 0.38 0.00 95 1004.6
20260506021559 52 0 0.0 1.7 0.00 0.38 0.00 95 1004.6
20260506020100 52 0 0.0 1.7 0.00 0.38 0.00 95 1004.6
20260506014559 52 0 0.0 1.7 0.00 0.38 0.00 95 1004.8
20260506013110 52 0 0.0 1.7 0.00 0.38 0.00 95 1004.8
20260506011608 52 0 0.0 1.7 0.00 0.38 0.00 95 1004.9
20260506010058 52 0 0.0 2.6 0.00 0.38 0.00 95 1005.0
20260506004557 53 0 0.0 2.6 0.00 0.38 0.00 96 1005.0
20260506003058 53 17 0.0 2.6 0.00 0.38 0.00 96 1005.1
20260506001558 53 330 0.0 1.7 0.00 0.38 0.00 96 1005.2
20260505234557 53 0 0.0 1.7 0.00 0.38 0.00 96 1005.5
20260505233055 53 0 0.0 1.7 0.00 0.38 0.00 96 1005.6
20260505231559 53 188 0.0 0.9 0.00 0.38 0.00 96 1005.6
20260505230107 53 185 0.0 0.0 0.00 0.38 0.00 96 1005.6
20260505224600 53 0 0.0 0.0 0.00 0.38 0.00 95 1005.8
20260505223110 53 0 0.0 0.9 0.00 0.38 0.00 95 1005.9
20260505221559 53 0 0.0 0.9 0.00 0.38 0.00 96 1005.9
20260505220108 53 0 0.0 0.9 0.00 0.37 0.00 96 1006.1
20260505214556 53 0 0.0 0.0 0.00 0.37 0.37 96 1006.2
20260505213101 53 0 0.0 0.9 0.04 0.37 0.37 96 1006.2
20260505211559 53 0 0.0 0.0 0.10 0.37 0.37 96 1006.3
20260505210058 53 0 0.0 0.0 0.17 0.37 0.37 95 1006.5
20260505204606 53 0 0.0 0.0 0.21 0.37 0.37 95 1006.3
20260505203116 53 0 0.0 0.9 0.18 0.33 0.33 95 1006.4
20260505201603 53 0 0.0 0.0 0.12 0.27 0.27 95 1006.4
20260505200101 53 0 0.0 0.9 0.07 0.20 0.20 95 1006.4
20260505194612 53 0 0.0 1.7 0.03 0.15 0.15 95 1006.4
20260505193059 54 0 0.0 0.0 0.03 0.14 0.14 95 1006.2
20260505191601 54 0 0.0 0.0 0.04 0.14 0.14 95 1006.0
20260505190100 54 0 0.0 0.9 0.03 0.13 0.13 95 1006.1
20260505184601 54 0 0.0 0.0 0.02 0.12 0.12 95 1006.1
20260505183107 54 0 0.0 0.0 0.00 0.11 0.11 94 1006.1
20260505181558 54 0 0.0 0.0 0.00 0.10 0.10 94 1006.3
20260505180056 54 0 0.0 0.0 0.00 0.10 0.10 94 1006.3
20260505174604 55 0 0.0 0.9 0.00 0.10 0.10 94 1006.4
20260505173100 55 0 0.0 0.0 0.00 0.10 0.10 93 1006.4
20260505171558 55 0 0.0 0.0 0.00 0.10 0.10 93 1006.4
20260505170057 55 0 0.0 0.0 0.01 0.10 0.10 93 1006.4
20260505164604 55 0 0.0 0.0 0.02 0.10 0.10 93 1006.4
20260505163102 55 0 0.0 0.0 0.02 0.10 0.10 92 1006.4
20260505161557 55 0 0.0 1.7 0.03 0.09 0.09 91 1006.5